CW2995 Weather Reports


time (UTC)temp
F
wind
direction
speed
knots
gust
knots
rain 1hr
in
rain 24hr
in
rain mn
in
humidity
%
barometer
mb
20260503220800 65 266 6.1 11.3 0.00 0.00 0.00 63 1013.4
20260503220314 64 216 3.5 9.6 0.00 0.00 0.00 64 1013.5
20260503215814 65 235 4.3 10.4 0.00 0.00 0.00 62 1013.5
20260503215259 65 269 7.0 11.3 0.00 0.00 0.00 62 1013.5
20260503214810 65 237 5.2 11.3 0.00 0.00 0.00 62 1013.5
20260503214252 65 253 4.3 12.2 0.00 0.00 0.00 61 1013.5
20260503213758 65 246 4.3 12.2 0.00 0.00 0.00 60 1013.5
20260503213304 64 281 7.0 12.2 0.00 0.00 0.00 61 1013.6
20260503212815 64 263 6.1 12.2 0.00 0.00 0.00 61 1013.6
20260503212320 65 206 6.1 12.2 0.00 0.00 0.00 60 1013.6
20260503211819 64 242 7.0 12.2 0.00 0.00 0.00 60 1013.7
20260503211320 65 248 7.0 12.2 0.00 0.00 0.00 59 1013.7
20260503210818 65 220 6.1 9.6 0.00 0.00 0.00 60 1013.7
20260503210318 66 221 3.5 12.2 0.00 0.00 0.00 61 1013.7
20260503205821 65 308 6.1 12.2 0.00 0.00 0.00 62 1013.7
20260503205300 65 253 7.8 12.2 0.00 0.00 0.00 61 1013.7
20260503204834 66 219 5.2 8.7 0.00 0.00 0.00 61 1013.8
20260503204316 66 314 4.3 10.4 0.00 0.00 0.00 61 1013.8
20260503203803 65 269 3.5 10.4 0.00 0.00 0.00 62 1013.8
20260503203305 66 222 3.5 9.6 0.00 0.00 0.00 60 1013.8
20260503202756 65 229 3.5 9.6 0.00 0.00 0.00 59 1013.8
20260503202306 66 228 4.3 12.2 0.00 0.00 0.00 60 1013.8
20260503201812 65 229 6.1 12.2 0.00 0.00 0.00 59 1014.0
20260503201302 66 257 4.3 9.6 0.00 0.00 0.00 58 1014.0
20260503200819 65 218 2.6 9.6 0.00 0.00 0.00 60 1014.0
20260503200319 65 269 5.2 7.8 0.00 0.00 0.00 58 1014.0
20260503195819 65 290 4.3 9.6 0.00 0.00 0.00 55 1014.0
20260503195337 65 261 5.2 7.8 0.00 0.00 0.00 58 1014.0
20260503194818 65 205 3.5 7.8 0.00 0.00 0.00 60 1014.1
20260503194336 64 259 4.3 9.6 0.00 0.00 0.00 60 1014.1
20260503193814 64 255 5.2 10.4 0.00 0.00 0.00 59 1014.1
20260503193315 65 284 5.2 10.4 0.00 0.00 0.00 60 1014.2
20260503192800 64 221 5.2 11.3 0.00 0.00 0.00 61 1014.2
20260503192318 65 298 5.2 11.3 0.00 0.00 0.00 58 1014.2
20260503191840 65 257 6.1 11.3 0.00 0.00 0.00 60 1014.3
20260503191317 65 195 2.6 7.0 0.00 0.00 0.00 63 1014.3
20260503190817 65 249 4.3 7.0 0.00 0.00 0.00 61 1014.3
20260503190317 64 219 5.2 10.4 0.00 0.00 0.00 61 1014.4
20260503185758 64 225 6.1 10.4 0.00 0.00 0.00 60 1014.4
20260503185314 65 288 2.6 9.6 0.00 0.00 0.00 62 1014.4
20260503184834 64 209 5.2 9.6 0.00 0.00 0.00 64 1014.5
20260503184312 64 235 2.6 8.7 0.00 0.00 0.00 64 1014.5
20260503183821 64 250 2.6 8.7 0.00 0.00 0.00 61 1014.5
20260503183325 65 149 3.5 6.1 0.00 0.00 0.00 59 1014.5
20260503182814 66 273 3.5 6.1 0.00 0.00 0.00 61 1014.5
20260503182256 65 235 2.6 7.8 0.00 0.00 0.00 64 1014.5
20260503181802 64 240 3.5 7.8 0.00 0.00 0.00 63 1014.5
20260503181312 64 224 2.6 6.1 0.00 0.00 0.00 65 1014.5
20260503180752 63 288 2.6 6.1 0.00 0.00 0.00 65 1014.5
20260503180322 63 240 3.5 6.1 0.00 0.00 0.00 67 1014.6
20260503175823 63 250 2.6 6.1 0.00 0.00 0.00 67 1014.6
20260503175305 63 341 2.6 7.0 0.00 0.00 0.00 69 1014.6
20260503174816 62 266 2.6 7.0 0.00 0.00 0.00 69 1014.6
20260503174321 62 293 1.7 7.8 0.00 0.00 0.00 71 1014.6
20260503173818 62 233 4.3 7.8 0.00 0.00 0.00 71 1014.6
20260503173257 62 271 3.5 7.0 0.00 0.00 0.00 71 1014.5
20260503172803 62 265 3.5 7.0 0.00 0.00 0.00 71 1014.5
20260503172315 62 240 2.6 7.0 0.00 0.00 0.00 71 1014.5
20260503171758 62 226 3.5 7.0 0.00 0.00 0.00 70 1014.2
20260503171308 62 262 2.6 6.1 0.00 0.00 0.00 70 1014.2
20260503170754 62 202 4.3 6.1 0.00 0.00 0.00 69 1014.2
20260503170301 62 223 1.7 6.1 0.00 0.00 0.00 70 1014.1
20260503150823 60 242 2.6 4.3 0.00 0.00 0.00 74 1013.5
20260503150310 60 256 1.7 4.3 0.00 0.00 0.00 75 1013.5
20260503131318 0 0.0 0.0 0.00 0.00 0.00 1012.5
20260503130756 0 0.0 0.0 0.00 0.00 0.00 1012.5
20260503130321 0 0.0 0.0 0.00 0.00 0.00 1012.5
20260503110815 60 282 0.0 0.0 0.00 0.00 0.00 78 1012.4
20260503110315 60 282 0.0 0.0 0.00 0.00 0.00 77 1012.5
20260503090336 60 246 1.7 2.6 0.00 0.00 0.00 76 1013.0
20260503081300 60 235 1.7 4.3 0.00 0.00 0.00 77 1013.1
20260503080805 60 216 1.7 4.3 0.00 0.00 0.00 77 1013.1
20260503080332 60 207 1.7 4.3 0.00 0.00 0.00 77 1013.0
20260503072812 60 196 0.9 2.6 0.00 0.00 0.00 79 1012.9
20260503072305 60 234 0.9 6.1 0.00 0.00 0.00 79 1012.9
20260503071815 60 207 3.5 6.1 0.00 0.00 0.00 79 1012.8
20260503071335 60 204 3.5 5.2 0.00 0.00 0.00 79 1012.8
20260503070756 60 217 2.6 5.2 0.00 0.00 0.00 80 1012.8
20260503070329 60 207 2.6 5.2 0.00 0.00 0.00 80 1012.6
20260503060320 60 277 2.6 4.3 0.00 0.00 0.00 82 1012.6
20260503054829 60 319 0.9 5.2 0.00 0.00 0.00 83 1012.7
20260503054255 60 300 1.7 5.2 0.00 0.00 0.00 83 1012.7
20260503053753 60 287 1.7 5.2 0.00 0.00 0.00 83 1012.7
20260503053254 60 269 2.6 4.3 0.00 0.00 0.00 83 1012.8
20260503052756 60 286 0.9 6.1 0.00 0.00 0.00 83 1012.8
20260503052305 60 231 3.5 6.1 0.00 0.00 0.00 83 1012.8
20260503051812 60 247 1.7 3.5 0.00 0.00 0.00 84 1012.7
20260503051255 60 253 1.7 5.2 0.00 0.00 0.00 84 1012.7
20260503050806 60 283 3.5 5.2 0.00 0.00 0.00 84 1012.7
20260503050254 60 288 1.7 6.1 0.00 0.00 0.00 84 1012.9
20260503045820 59 266 3.5 6.1 0.00 0.00 0.00 84 1012.9
20260503045319 59 239 2.6 6.1 0.00 0.00 0.00 84 1012.9
20260503044818 59 271 2.6 5.2 0.00 0.00 0.00 84 1012.6
20260503044315 59 250 0.9 5.2 0.00 0.00 0.00 84 1012.6
20260503043835 59 218 2.6 5.2 0.00 0.00 0.00 84 1012.6
20260503043310 59 263 1.7 5.2 0.00 0.00 0.00 84 1012.4
20260503042819 59 244 2.6 5.2 0.00 0.00 0.00 84 1012.4
20260503042305 59 298 1.7 5.2 0.00 0.00 0.00 84 1012.4
20260503041816 59 271 3.5 5.2 0.00 0.00 0.00 84 1012.0
20260503041324 59 271 2.6 6.1 0.00 0.00 0.00 85 1012.0
20260503040759 59 271 1.7 6.1 0.00 0.00 0.00 85 1012.0
20260503040306 59 248 2.6 6.1 0.00 0.00 0.00 85 1011.9
20260503035810 59 281 2.6 5.2 0.00 0.00 0.00 85 1011.9
20260503035253 59 242 3.5 6.1 0.00 0.00 0.00 84 1011.9
20260503034805 59 236 2.6 6.1 0.00 0.00 0.00 84 1011.6
20260503034311 59 258 2.6 6.1 0.00 0.00 0.00 84 1011.6
20260503033753 60 269 1.7 5.2 0.00 0.00 0.00 83 1011.6
20260503033306 60 223 1.7 6.1 0.00 0.00 0.00 83 1011.4
20260503032815 60 260 2.6 6.1 0.00 0.00 0.00 83 1011.4
20260503032256 60 285 2.6 5.2 0.00 0.00 0.00 83 1011.4
20260503031820 60 296 1.7 5.2 0.00 0.00 0.00 83 1011.2
20260503031309 60 294 2.6 5.2 0.00 0.00 0.00 82 1011.2
20260503030756 60 304 3.5 5.2 0.00 0.00 0.00 82 1011.2
20260503030307 60 270 1.7 4.3 0.00 0.00 0.00 82 1010.9
20260503025759 60 263 1.7 4.3 0.00 0.00 0.00 82 1010.9
20260503025305 60 233 2.6 7.0 0.00 0.00 0.00 82 1010.9
20260503024810 60 242 2.6 7.0 0.00 0.00 0.00 82 1010.7
20260503024315 60 279 3.5 7.0 0.00 0.00 0.00 81 1010.7
20260503023805 60 267 1.7 8.7 0.00 0.00 0.00 81 1010.7
20260503023313 60 221 1.7 8.7 0.00 0.00 0.00 81 1010.6
20260503022755 60 246 5.2 7.8 0.00 0.00 0.00 81 1010.6
20260503022305 60 250 2.6 7.8 0.00 0.00 0.00 80 1010.6
20260503021751 61 281 4.3 7.8 0.00 0.00 0.00 80 1010.5
20260503021321 61 281 3.5 7.8 0.00 0.00 0.00 80 1010.5
20260503020817 61 253 5.2 7.8 0.00 0.00 0.00 80 1010.5
20260503020343 61 253 4.3 7.8 0.00 0.00 0.00 80 1010.4
20260503015801 61 219 2.6 7.8 0.00 0.00 0.00 80 1010.4
20260503015305 61 232 4.3 8.7 0.00 0.00 0.00 79 1010.4
20260503014758 61 240 5.2 11.3 0.00 0.00 0.00 79 1010.5
20260503014327 61 221 5.2 11.3 0.00 0.00 0.00 78 1010.5
20260503013754 62 236 4.3 11.3 0.00 0.00 0.00 78 1010.5
20260503013300 62 278 5.2 10.4 0.00 0.00 0.00 76 1010.5
20260503012806 62 283 6.1 9.6 0.00 0.00 0.00 76 1010.5
20260503012336 63 221 4.3 7.8 0.00 0.00 0.00 75 1010.5
20260503011816 63 261 3.5 9.6 0.00 0.00 0.00 75 1010.4
20260503011319 63 273 3.5 9.6 0.00 0.00 0.00 75 1010.4
20260503010824 63 254 4.3 9.6 0.00 0.00 0.00 74 1010.4
20260503010251 63 228 5.2 9.6 0.00 0.00 0.00 74 1010.5
20260503005837 63 240 3.5 9.6 0.00 0.00 0.00 74 1010.5
20260503005257 63 241 5.2 8.7 0.00 0.00 0.00 74 1010.5
20260503004820 63 247 6.1 8.7 0.00 0.00 0.00 74 1010.4
20260503004322 63 245 5.2 8.7 0.00 0.00 0.00 73 1010.4
20260503003803 63 297 4.3 10.4 0.00 0.00 0.00 74 1010.4
20260503003315 63 215 6.1 10.4 0.00 0.00 0.00 74 1010.6
20260503002839 64 237 4.3 8.7 0.00 0.00 0.00 72 1010.6
20260503002314 64 238 5.2 10.4 0.00 0.00 0.00 73 1010.6
20260503001819 64 231 3.5 10.4 0.00 0.00 0.00 73 1010.8
20260503001258 63 240 5.2 10.4 0.00 0.00 0.00 73 1010.8
20260503000805 64 200 5.2 9.6 0.00 0.00 0.00 72 1010.8
20260503000314 64 223 6.1 9.6 0.00 0.00 0.00 71 1010.7
20260502235756 64 267 4.3 9.6 0.00 0.00 0.00 70 1010.7
20260502235325 65 253 5.2 9.6 0.00 0.00 0.00 70 1010.7
20260502234811 64 280 3.5 7.8 0.00 0.00 0.00 71 1010.8
20260502234319 64 250 4.3 8.7 0.00 0.00 0.00 72 1010.8
20260502233802 64 241 4.3 8.7 0.00 0.00 0.00 72 1010.8
20260502233310 64 274 4.3 8.7 0.00 0.00 0.00 71 1010.9
20260502232753 64 224 3.5 8.7 0.00 0.00 0.00 71 1010.9
20260502232259 64 251 3.5 10.4 0.00 0.00 0.00 71 1010.9
20260502231806 64 258 5.2 10.4 0.00 0.00 0.00 71 1011.0
20260502231319 65 229 4.3 9.6 0.00 0.00 0.00 71 1011.0
20260502230753 64 224 2.6 9.6 0.00 0.00 0.00 72 1011.0
20260502230301 64 230 4.3 11.3 0.00 0.00 0.00 72 1011.0
20260502225826 64 239 6.1 11.3 0.00 0.00 0.00 71 1011.0
20260502225301 64 232 5.2 10.4 0.00 0.00 0.00 71 1011.0
20260502224815 64 254 5.2 13.0 0.00 0.00 0.00 71 1011.5
20260502224254 64 237 7.0 13.0 0.00 0.00 0.00 71 1011.5
20260502223802 65 284 7.0 12.2 0.00 0.00 0.00 70 1011.5
20260502223254 65 280 5.2 10.4 0.00 0.00 0.00 70 1012.0
20260502222823 65 261 5.2 12.2 0.00 0.00 0.00 71 1012.0
20260502222259 64 247 7.0 12.2 0.00 0.00 0.00 71 1012.0
20260502221804 65 255 4.3 11.3 0.00 0.00 0.00 70 1012.4
20260502221337 65 277 6.1 11.3 0.00 0.00 0.00 70 1012.4